Вернуться в каталог

STARLINK-3766

АктивенСвязьVLEO
NORAD 52296·PAYLOAD·🇺🇸 United States

Запущен Apr 21, 2022 с Cape Canaveral Space Force Station

Loading…

Ближайшие Пролёты (ближайшие 24 часа)

TLE

СвежийSource: CelesTrak SupGP

Эпоха: Sep 14, 2026, 13:15 UTC

1 52296C 22041AM  26257.55256944  .00021665  00000+0  64078-3 0  2579
2 52296  53.1595 319.1760 0001388  69.9437 247.0104 15.34346074    15

Отслеживайте STARLINK-3766 в реальном времени с AllMySat

Download on the App Store